[Iaude] MPEC L06: 2018 LC [a=1.05,e=0.01,i=11.2,H=25.2]

mpec at mpcdb1.cfa.harvard.edu mpec at mpcdb1.cfa.harvard.edu
Sun Jun 3 21:35:16 EDT 2018


M.P.E.C. 2018-L06                                Issued 2018 June 4, 01:32 UT
 
     The Minor Planet Electronic Circulars contain information on unusual
         minor planets and routine data on comets.  They are published
    on behalf of Division F of the International Astronomical Union by the
          Minor Planet Center, Smithsonian Astrophysical Observatory,
                          Cambridge, MA 02138, U.S.A.

             Prepared using the Tamkin Foundation Computer Network

                              MPC at CFA.HARVARD.EDU
            URL https://www.minorplanetcenter.net/    ISSN 1523-6714


                                    2018 LC
 
Observations:
     K18L00C* C2018 06 02.18154 13 17 37.83 -18 40 53.8          20.7 GUEL006G96
     K18L00C  C2018 06 02.18686 13 17 39.42 -18 39 36.8          21.1 GUEL006G96
     K18L00C  C2018 06 02.19748 13 17 42.59 -18 37 05.1          19.9 GUEL006G96
     K18L00C  C2018 06 02.23369 13 17 53.68 -18 28 23.0          19.3 GUEL006I52
     K18L00C  C2018 06 02.23513 13 17 54.08 -18 28 01.4          19.7 GUEL006I52
     K18L00C  C2018 06 02.23657 13 17 54.50 -18 27 40.2          19.5 GUEL006I52
     K18L00C  C2018 06 02.23801 13 17 54.95 -18 27 19.3          19.8 GUEL006I52
     K18L00C FC2018 06 02.90303 13 22 02.25 -15 48 43.1          20   GVEL006204
     K18L00C HC2018 06 02.92537 13 22 09.27 -15 43 19.6                VEL006204
     K18L00C KC2018 06 03.84801 13 27 46.91 -12 03 00.4          20.5 VUEL006L01
     K18L00C KC2018 06 03.85137 13 27 47.94 -12 02 12.6          20.1 VUEL006L01
 
Observer details:
204 Schiaparelli Observatory.  Observer L. Buzzi.  0.84-m f/3.5 reflector
    + CCD.
G96 Mt. Lemmon Survey.  Observer R. A. Kowalski.  Measurers B. M. Africano,
    E. J. Christensen, D. C. Fuls, A. R. Gibbs, A. D. Grauer, H. Groeller,
    J. A. Johnson, R. A. Kowalski, S. M. Larson, G. J. Leonard, R. L. Seaman,
    F. C. Shelly.  1.5-m reflector + 10K CCD.
I52 Steward Observatory, Mt. Lemmon Station.  Observer J. A. Johnson.
    Measurers B. M. Africano, E. J. Christensen, D. C. Fuls, A. R. Gibbs,
    A. D. Grauer, H. Groeller, J. A. Johnson, R. A. Kowalski, S. M. Larson,
    G. J. Leonard, R. L. Seaman, F. C. Shelly.  1.0-m reflector + CCD.
L01 Visnjan Observatory, Tican.  Observers K. Korlevic, D. Marusic.  Measurer
    K. Korlevic.  1.0-m f/2.9 reflector + CCD.
 
Orbital elements:
2018 LC                                                  Earth MOID = 0.0305 AU
Epoch 2018 Mar. 23.0 TT = JDT 2458200.5                 MPC
M 245.27561              (2000.0)            P               Q
n   0.91111990     Peri.   48.87507     +0.49513282     +0.84902302
a   1.0537858      Node   251.70561     -0.84393627     +0.41956609
e   0.0129775      Incl.   11.19896     -0.20643417     +0.32112956
P   1.08           H   25.2           G   0.15           U   6
Residuals in seconds of arc
180602 G96  0.3+  0.1-    180602 I52  0.3+  0.1-    180602 204  0.1+  0.0
180602 G96  0.1+  0.5+    180602 I52  0.1-  0.3+    180603 L01  0.1+  0.1+
180602 G96  0.3-  0.5-    180602 I52  0.0   0.4+    180603 L01  0.4+  0.2-
180602 I52  0.9+  0.8-    180602 204  0.1+  0.1-

Ephemeris:
2018 LC                  a,e,i = 1.05, 0.01, 11                  q = 1.0401
Date    TT    R. A. (2000) Decl.     Delta      r     Elong.  Phase     V
2018 05 05    10 04 02.3 -71 11 22   0.1033  1.0505   111.4    63.4    22.6
...
2018 05 20    11 44 10.0 -57 25 40   0.06386 1.0475   122.4    54.6    21.3
...
2018 05 28    12 43 14.4 -37 48 51   0.04863 1.0459   131.2    46.8    20.5
...
2018 06 03    13 22 41.4 -15 22 53   0.04468 1.0449   132.4    45.8    20.3
2018 06 04    13 28 42.3 -11 24 21   0.04487 1.0447   131.6    46.6    20.3
2018 06 05    13 34 33.3 -07 29 04   0.04530 1.0446   130.5    47.6    20.4
...
2018 06 11    14 06 17.7 +12 56 11   0.05248 1.0436   121.4    56.2    20.9
...
2018 06 19    14 40 53.8 +29 37 03   0.06994 1.0425   110.4    66.0    21.8
...
2018 07 04    15 29 08.2 +42 27 36   0.1097  1.0409    99.8    74.3    23.1

A. U. Tomatic                (C) Copyright 2018 MPC           M.P.E.C. 2018-L06



More information about the Iaude mailing list